Total_Precipitation_Accumulation
3.63 3.52 3.43 3.59 3.27 3.28 3.67 3.83 3.53 3.59 3.68 3.48 3.19 3.10 3.14 3.00 2.97 2.86 3.02 3.22 3.01 3.10 3.45 3.40 3.25 3.01 2.85 2.57 2.35 2.24 2.16 2.01 1.74 1.40 1.24 1.17 1.11 1.03 1.03 1.03 0.93 0.84 0.79
3.72 3.69 3.58 3.58 3.19 3.05 3.29 3.50 3.43 3.62 3.60 3.52 3.15 2.94 2.91 3.10 3.11 2.89 2.97 3.28 3.18 2.86 3.02 3.28 3.48 3.49 3.29 3.07 2.80 2.54 2.40 2.28 1.94 1.49 1.25 1.20 1.16 1.13 1.20 1.26 1.12 0.94 0.83
3.84 3.90 3.76 3.46 3.26 3.27 3.36 3.35 3.40 3.74 3.53 3.38 3.20 3.11 3.04 3.08 2.94 2.86 2.90 3.12 2.86 2.69 2.68 2.78 3.13 3.45 3.70 3.70 3.43 3.14 2.79 2.45 2.04 1.66 1.39 1.24 1.13 1.12 1.21 1.26 1.25 1.11 0.90
3.61 3.90 3.58 3.23 3.34 3.45 3.55 3.56 3.54 3.72 3.77 3.84 3.72 3.49 3.21 3.10 2.54 2.48 2.56 2.65 2.79 2.42 2.55 2.74 2.85 3.02 3.59 4.06 4.27 4.17 3.57 2.93 2.42 1.97 1.68 1.46 1.39 1.35 1.30 1.27 1.30 1.25 1.06
2.91 3.08 2.94 2.90 2.94 3.09 3.02 2.81 3.20 3.44 3.66 3.86 3.59 3.42 3.01 2.86 2.60 2.45 2.50 2.28 2.43 2.46 2.49 2.56 2.74 2.79 3.30 4.15 4.97 5.26 4.80 3.99 3.23 2.55 2.23 2.06 1.92 1.72 1.58 1.48 1.41 1.37 1.22
2.51 2.69 2.51 2.49 2.65 2.89 2.91 2.96 3.20 3.14 3.08 3.27 2.94 2.93 2.84 2.59 2.58 2.53 2.35 2.27 2.26 2.22 2.37 2.55 2.77 2.43 2.93 3.83 4.65 5.08 5.24 4.86 4.08 3.38 3.06 2.81 2.68 2.34 1.84 1.59 1.49 1.41 1.31
2.49 2.76 2.48 2.71 2.69 2.77 2.78 2.68 2.79 2.76 2.51 2.66 3.09 3.03 2.69 2.45 2.47 2.39 2.29 2.37 2.15 2.16 2.39 2.66 2.86 2.90 2.62 2.60 3.13 3.74 4.60 5.22 4.88 4.20 3.80 3.49 3.28 2.79 2.17 1.86 1.62 1.48 1.41
2.39 2.46 2.58 2.39 2.41 2.56 2.49 2.46 2.73 2.68 2.37 2.46 2.91 3.13 2.98 3.00 2.74 2.13 2.12 2.26 2.22 2.28 2.37 2.44 2.76 3.00 2.84 3.03 2.44 2.55 3.62 4.61 5.17 5.10 4.56 3.87 3.34 2.84 2.40 2.20 1.91 1.67 1.58
2.03 2.17 2.25 2.36 2.46 2.34 2.39 2.43 2.46 2.56 2.50 2.34 2.42 2.97 2.92 2.81 2.67 2.39 2.07 2.03 2.20 2.43 2.42 2.49 2.49 2.60 2.67 3.04 2.99 2.63 2.90 3.20 4.29 5.24 5.13 4.23 3.27 2.65 2.40 2.46 2.37 2.01 1.80
1.85 1.77 1.89 2.10 2.28 2.25 2.47 2.20 2.24 2.46 2.54 2.29 2.30 2.40 2.43 2.52 2.64 2.46 2.11 1.92 1.98 2.09 2.25 2.22 2.39 2.55 2.61 2.87 3.08 2.69 2.32 2.31 2.99 4.02 4.58 4.47 3.72 2.90 2.52 2.64 2.96 2.86 2.40
1.78 1.63 1.72 1.94 2.10 2.17 2.29 2.30 2.54 2.44 2.33 2.28 2.24 2.33 2.41 2.43 2.30 2.34 2.26 2.02 1.92 1.78 1.90 2.09 2.32 2.54 2.54 2.70 3.02 2.74 2.51 2.34 2.23 2.50 3.09 3.58 3.69 3.40 3.07 3.13 3.65 4.04 3.88
1.86 1.84 1.79 1.91 1.93 1.97 2.06 2.17 2.38 2.38 2.32 2.33 2.19 2.11 2.31 2.41 2.40 2.46 2.27 2.03 1.89 1.68 1.68 1.83 2.18 2.52 2.62 2.58 2.31 2.28 2.31 2.32 2.16 2.04 2.13 2.42 2.82 3.07 3.27 3.61 4.12 4.71 5.01
1.71 1.89 1.90 1.93 1.97 2.02 1.99 2.09 2.16 2.15 2.19 2.31 2.22 2.09 2.07 2.07 2.23 2.38 2.37 2.04 1.89 1.72 1.90 1.89 1.89 2.04 2.13 2.26 2.27 2.20 1.97 2.02 1.84 1.75 1.78 1.90 2.14 2.45 2.69 2.94 3.42 3.96 4.40
1.48 1.66 1.84 1.88 1.86 1.82 1.85 2.24 2.04 1.98 2.12 2.21 2.15 2.41 2.26 2.04 2.22 2.35 2.42 2.47 2.28 2.15 2.25 2.10 1.84 1.80 1.91 2.03 2.15 2.09 1.71 1.75 1.62 1.51 1.42 1.37 1.43 1.57 1.75 1.94 2.22 2.53 2.84
1.53 1.60 1.61 1.80 1.88 1.81 1.85 2.08 2.06 2.01 2.12 2.11 2.25 2.50 2.46 2.33 2.33 2.33 2.49 2.74 2.91 2.72 2.47 2.23 1.95 1.73 1.79 1.89 1.93 1.67 1.62 1.81 1.62 1.40 1.31 1.29 1.28 1.30 1.36 1.41 1.45 1.55 1.62
1.58 1.64 1.69 1.67 1.72 1.82 1.93 2.05 1.95 1.88 2.01 2.12 2.28 2.44 2.47 2.41 2.42 2.32 2.41 2.64 2.88 2.94 2.58 2.17 2.00 1.83 1.80 1.58 1.72 1.53 1.50 1.64 1.50 1.40 1.32 1.27 1.21 1.23 1.25 1.26 1.23 1.23 1.26
1.52 1.53 1.57 1.63 1.62 1.71 1.96 2.24 2.13 2.08 2.11 2.16 2.21 2.38 2.49 2.67 2.67 2.54 2.52 2.51 2.66 2.83 2.61 2.25 2.08 1.97 1.80 1.61 1.55 1.43 1.35 1.35 1.32 1.40 1.31 1.19 1.08 1.05 1.11 1.13 1.14 1.12 1.07
1.41 1.32 1.39 1.45 1.41 1.53 1.79 2.09 2.24 2.31 2.38 2.35 2.41 2.60 2.65 2.68 2.63 2.53 2.55 2.54 2.54 2.76 2.69 2.40 2.27 2.12 1.94 1.72 1.61 1.54 1.34 1.25 1.30 1.53 1.45 1.25 1.11 1.06 1.06 1.03 0.99 0.98 1.02
1.49 1.48 1.50 1.46 1.59 1.68 1.71 1.88 2.07 2.18 2.26 2.28 2.43 2.49 2.49 2.61 2.53 2.50 2.36 2.35 2.40 2.58 2.79 2.60 2.46 2.44 2.25 2.00 1.85 1.67 1.51 1.49 1.25 1.32 1.36 1.26 1.19 1.10 1.04 1.02 1.02 1.00 0.96
1.54 1.59 1.59 1.61 1.72 1.75 1.71 1.80 1.96 2.09 2.16 2.19 2.29 2.39 2.46 2.47 2.52 2.62 2.48 2.49 2.65 2.77 2.87 2.79 2.68 2.73 2.66 2.40 2.17 1.94 1.74 1.61 1.43 1.20 1.29 1.30 1.26 1.18 1.09 1.02 1.00 0.99 1.00
1.61 1.70 1.75 1.72 1.71 1.63 1.56 1.80 1.95 1.97 2.14 2.19 2.18 2.16 2.25 2.45 2.52 2.55 2.36 2.49 2.70 2.72 2.68 2.69 2.67 2.81 2.82 2.68 2.34 2.02 1.88 1.85 1.68 1.46 1.39 1.24 1.23 1.23 1.21 1.20 1.17 1.14 1.06
1.81 1.92 1.95 1.93 1.83 1.60 1.79 1.88 1.91 1.98 2.09 2.12 2.13 2.04 1.96 1.99 2.07 2.20 2.21 2.23 2.36 2.49 2.57 2.59 2.58 2.67 2.72 2.66 2.52 2.29 2.12 2.01 1.88 1.78 1.80 1.69 1.50 1.49 1.36 1.23 1.29 1.24 1.15
1.98 2.00 1.98 1.98 1.94 1.96 1.98 1.77 1.71 1.65 1.70 1.75 1.76 1.74 1.53 1.45 1.76 1.85 2.03 2.02 1.91 1.95 2.05 2.26 2.36 2.36 2.53 2.61 2.67 2.44 2.33 2.17 1.97 1.95 2.02 1.95 1.80 1.64 1.41 1.34 1.46 1.31 1.24
2.27 2.20 2.11 2.12 2.17 2.16 2.17 1.86 1.75 1.62 1.59 1.57 1.56 1.53 1.53 1.54 1.61 1.77 1.84 1.81 1.73 1.70 1.75 1.78 1.87 2.09 2.32 2.56 2.65 2.58 2.56 2.39 2.12 2.01 2.01 1.98 1.82 1.71 1.49 1.43 1.46 1.34 1.25
2.71 2.60 2.54 2.56 2.57 2.64 2.65 2.28 2.12 1.86 1.77 1.67 1.68 1.74 1.76 1.61 1.67 1.68 1.70 1.66 1.63 1.65 1.70 1.71 1.70 1.86 2.05 2.22 2.49 2.53 2.46 2.36 2.10 2.00 2.00 1.94 1.82 1.81 1.70 1.53 1.39 1.35 1.14
3.13 3.12 3.11 3.11 3.02 2.99 2.97 2.58 2.42 2.16 2.09 2.02 2.02 1.90 1.80 1.61 1.54 1.48 1.47 1.54 1.47 1.47 1.63 1.66 1.61 1.67 1.81 1.99 2.25 2.27 2.23 2.29 2.08 1.93 1.79 1.85 1.83 1.87 1.85 1.59 1.38 1.26 1.13